SCP
0 0 0 0 0 0 0 0 0 0 0 0 0 0 0 0 0 0 0 0 0 0 0 0 0 0 0 0 0 0 0 0 0 0 0 0 0 0 0 0 0 0 0
0 0 0 0 0 0 0 0 0 0 0 0 0 0 0 0 0 0 0 0 0 0 0 0 0 0 0 0 0 0 0 0 0 0 0 0 0 0 0 0 0 0 0
0 0 0 0 0 0 0 0 0 0 0 0 0 0 0 0 0 0 0 0 0 0 0 0 0 0 0 0 0 0 0 0 0 0 0 0 0 0 0 0 0 0 0
0 0 0 0 0 0 0 0 0 0 0 0 0 0 0 0 0 0 0 0 0 0 0 0 0 0 0 0 0 0 0 0 0 0 0 0 0 0 0 0 0 0 0
0 0 0 0 0 0 0 0 0 0 0 0 0 0 0 0 0 0 0 0 0 0 0 0 0 0 0 0 0 0 0 0 0 0 0 0 0 0 0 0 0 0 0
0 0 0 0 0 0 0 0 0 0 0 0 0 0 0 0 0 0 0 0 0 0 0 0 0 0 0 0 0 0 0 0 0 0 0 0 0 0 0 0 0 0 0
0 0 0 0 0 0 0 0 0 0 0 0 0 0 0 0 0 0 0 0 0 0 0 0 0 0 0 0 0 0 0 0 0 0 0 0 0 0 0 0 0 0 0
0 0 0 0 0 0 0 0 0 0 0 0 0 0 0 0 0 0 0 0 0 0 0 0 0 0 0 0 0 0 0 0 0 0 0 0 0 0 0 0 0 0 0
0 0 0 0 0 0 0 0 0 0 0 0 0 0 0 0 0 0 0 0 0 0 0 0 0 0 0 0 0 0 0 0 0 0 0 0 0 0 0 0 0 0 0
0 0 0 0 0 0 0 0 0 0 0 0 0 0 0 0 0 0 0 0 0 0 0 0 0 0 0 0 0 0 0 0 0 0 0 0 0 0 0 0 0 0 0
0 0 0 0 0 0 0 0 0 0 0 0 0 0 0 0 0 0 0 0 0 0 0 0 0 0 0 0 0 0 0 0 0 0 0 0 0 0 0 0 0 0 0
0 0 0 0 0 0 0 0 0 0 0 0 0 0 0 0 0 0 0 0 0 0 0 0 0 0 0 0 0 0 0 0 0 0 0 0 0 0 0 0 0 0 0
0 0 0 0 0 0 0 0 0 0 0 0 0 0 0 0 0 0 0 0 0 0 0 0 0 0 0 0 0 -0 0 0 0 0 0 0 0 0 0 0 0 0 0
0 0 0 0 0 0 0 0 0 0 0 0 0 0 0 0 0 0 0 0 0 0 0 0 0 0 0 0 0 0 0 0 0 0 0 0 0 0 0 0 0 0 0
0 0 0 0 0 0 0 0 -0 -0 -0 -0 0 0 0 0 0 0 0 0 0 0 0 0 0 0 -0 0 0 0 0 0 0 0 0 0 0 0 0 0 0 0 0
0 0 0 0 0 0 -0 -0 -0 -0 -0 0 0 0 0 0 0 0 0 0 0 0 0 0 0 0 -0 -0 -0 0 0 0 0 0 0 0 0 0 0 0 0 0 0
0 0 0 0 0 0 0 0 -0 -0 0 0 0 0 0 0 0 0 0 0 0 0 0 0 0 0 0 0 0 0 0 0 0 0 0 0 0 0 0 0 0 0 0
-0 -0 -0 -0 -0 -0 -0 0 0 -0 -0 -0 -0 -0 0 0 0 0 0 0 0 0 0 0 0 0 0 0 0 0 0 0 0 0 0 0 0 0 0 0 0 0 0
0 0 0 0 0 0 0 0 -0 -0 -0 -0 -0 -0 -0 0 0 0 0 0 0 0 0 0 0 0 0 0 0 0 0 0 0 0 0 0 0 0 0 0 0 0 0
-0 -0 -0 -0 -0 0 0 0 0 0 0 0 0 -0 -0 -0 -0 -0 0 0 0 0 0 0 0 0 0 0 0 0 0 0 0 0 0 0 0 0 0 0 0 0 0
-0 -0 -0 -0 -0 -0 -0 -0 -0 0 0 0 0 0 0 0 0 0 0 0 0 0 0 0 0 0 0 0 0 0 0 0 0 0 0 0 0 0 0 0 0 0 0
-0 -0 -0 -0 -0 -0 -0 -0 -0 -0 -0 0 0 0 -0 0 0 0 0 0 0 0 0 0 0 0 0 0 0 0 0 0 0 0 0 0 0 0 0 0 0 0 0
-0 -0 -0 0 0 0 0 0 0 0 0 0 0 0 0 0 0 0 0 0 0 0 0 0 0 0 0 0 0 0 0 0 0 0 0 0 0 0 0 0 0 0 0
0 0 0 0 0 0 0 0 0 0 0 0 0 0 0 0 0 0 0 0 0 0 0 0 0 0 0 0 0 0 0 0 0 0 0 0 0 0 0 0 0 0 0
0 0 0 0 0 0 0 0 0 0 0 0 0 0 0 0 0 0 0 0 0 0 0 0 0 0 0 0 0 0 0 0 0 0 0 0 0 0 0 0 0 0 0
0 0 0 0 0 0 0 0 0 0 0 0 0 0 0 0 0 0 0 0 0 0 0 0 0 0 0 0 0 0 0 0 0 0 0 0 0 0 0 0 0 0 0
Wind_Speed_500mb
28 27 25 22 20 18 19 21 24 27 30 32 34 36 39 42 44 48 51 52 55 58 60 63 66 65 70 76 75 78 83 89 95 108 97 95 95 89 91 93 88 90 86
26 23 21 18 18 20 22 24 27 29 32 34 35 36 36 37 40 43 46 50 52 53 51 55 64 66 73 75 78 80 81 83 86 100 102 102 99 96 91 88 88 89 89
28 27 26 26 26 28 28 28 28 28 30 33 34 35 36 39 41 42 47 49 51 54 57 60 62 58 64 71 72 78 84 86 83 87 102 92 98 97 101 97 94 91 92
31 30 29 29 29 29 29 31 32 33 36 34 36 38 38 38 40 45 45 47 49 51 52 55 57 58 69 73 65 61 72 79 85 89 98 102 93 90 91 93 94 93 101
32 32 34 34 33 34 34 35 36 37 38 40 40 38 38 37 40 40 42 43 43 43 44 47 51 54 54 55 73 87 82 76 70 82 88 92 93 92 97 93 94 100 97
32 34 37 37 35 33 32 34 35 35 34 32 28 26 23 23 26 31 36 38 39 42 45 45 46 49 49 52 50 52 70 93 101 96 90 83 89 92 105 101 99 87 99
33 34 35 36 38 36 32 30 32 31 30 29 28 26 25 24 27 32 37 42 44 43 45 48 47 46 48 52 56 60 58 54 69 93 105 107 98 86 80 77 74 77 88
34 35 35 32 34 35 35 32 32 33 33 32 32 31 31 28 31 34 37 41 45 47 49 51 50 48 45 50 57 61 65 67 60 56 65 86 100 112 95 89 92 91 91
38 35 39 38 36 40 38 36 35 35 34 36 35 34 35 32 34 38 42 47 51 53 55 57 58 58 55 54 60 67 68 63 58 59 61 66 70 76 77 83 97 91 94
36 36 35 42 42 39 42 41 39 39 39 41 40 38 37 39 37 42 47 53 57 58 62 62 62 63 61 63 64 67 75 71 71 69 65 61 62 65 60 67 74 79 81
32 33 35 35 37 39 42 44 46 44 45 45 47 41 42 43 42 45 49 53 59 62 65 65 65 67 68 70 67 69 69 71 73 73 74 70 68 64 62 61 57 58 72
29 31 33 37 42 39 41 44 48 51 49 48 50 46 45 47 47 47 50 52 56 63 69 70 69 64 68 75 75 72 68 67 68 68 70 70 65 61 56 54 54 49 55
32 36 36 39 47 48 48 47 52 48 52 54 53 54 54 51 51 49 58 61 60 63 68 76 80 74 69 71 72 76 76 70 64 67 70 68 61 56 56 55 51 47 53
35 37 37 42 47 51 56 53 56 53 55 61 64 64 68 64 63 59 63 66 70 72 76 81 82 79 75 75 73 72 73 72 65 66 68 66 62 57 55 52 50 47 51
40 42 45 49 54 59 61 60 61 56 55 64 67 69 75 77 68 67 67 70 74 77 84 91 93 87 84 79 76 74 72 71 71 68 67 67 65 60 54 51 52 48 51
53 55 59 62 65 66 70 77 71 70 70 70 75 71 73 72 69 71 71 77 77 76 83 91 96 92 88 81 79 78 77 76 74 73 67 71 70 62 57 55 53 51 53
58 60 63 63 63 67 72 79 90 88 83 81 81 81 79 80 82 80 76 78 79 80 85 92 93 91 91 89 85 82 82 78 77 76 68 64 65 62 61 61 57 56 57
62 64 65 65 67 69 71 76 81 89 98 100 92 88 85 84 85 80 76 82 94 86 85 89 93 94 96 96 92 90 89 82 75 72 70 59 59 63 62 64 64 62 60
59 59 59 61 63 64 68 72 76 82 88 96 98 92 93 90 89 87 78 80 89 87 86 93 97 99 100 100 98 95 92 88 80 75 73 70 68 63 68 67 66 65 64
57 57 57 58 60 62 67 71 76 80 86 91 94 95 93 88 85 84 86 86 87 92 91 92 96 101 103 101 100 98 98 93 86 74 70 72 71 70 75 68 70 69 68
59 58 57 59 60 63 67 70 73 77 81 84 88 87 74 76 88 93 93 93 94 97 99 98 99 97 95 97 100 99 98 97 84 75 75 62 67 72 73 75 72 74 70
55 55 55 57 61 66 70 73 75 78 81 84 90 90 78 84 96 98 96 94 92 93 95 98 102 100 96 93 90 91 95 97 91 85 82 78 65 74 77 78 75 80 75
57 58 61 64 66 70 74 76 78 81 84 85 85 92 98 100 99 100 100 97 94 92 91 92 98 101 98 95 91 87 89 91 84 76 77 77 77 52 75 79 76 81 81
60 62 65 67 70 73 77 81 83 85 87 88 92 100 107 107 105 104 102 101 97 95 91 92 94 96 95 91 90 89 88 86 81 81 71 69 68 87 57 80 78 85 84
59 62 65 67 70 73 77 80 83 86 87 89 97 106 113 111 108 106 104 100 98 97 97 95 95 93 89 86 83 81 82 81 77 74 71 70 78 87 81 66 85 86 88
62 63 67 69 72 74 77 81 86 88 89 94 102 112 113 110 109 107 106 104 102 101 97 95 92 87 83 81 78 74 73 72 67 64 62 67 71 75 89 71 90 89 88
Wind_Direction_500mb
223 225 230 234 237 246 259 267 272 275 278 277 277 278 279 280 279 279 282 285 282 279 275 276 277 279 277 276 279 281 280 273 267 283 282 286 286 280 281 285 289 287 290
212 209 215 226 240 252 258 262 267 271 275 279 282 282 283 283 284 284 283 280 278 279 283 284 283 284 283 282 279 274 270 274 276 278 285 285 285 287 289 290 292 289 289
216 223 231 243 252 259 262 263 267 272 277 281 283 284 285 286 286 285 283 286 286 286 286 281 276 276 282 285 286 283 284 283 275 270 278 285 286 285 284 285 290 289 291
228 234 242 250 257 262 267 269 271 274 274 276 279 282 282 283 284 285 288 290 292 295 296 296 294 287 272 268 275 281 285 282 284 282 278 283 281 284 274 280 287 287 293
241 247 251 253 256 260 263 266 269 271 272 273 274 274 274 277 281 287 290 293 296 297 300 301 303 303 300 290 273 269 270 276 285 281 277 280 281 281 276 283 290 294 292
248 252 254 254 256 258 261 263 266 267 268 268 269 271 275 282 288 292 297 303 306 307 307 307 310 312 311 308 302 286 273 268 269 273 277 284 279 278 284 282 287 292 282
250 251 256 260 261 259 263 269 269 270 271 271 275 279 286 291 296 298 298 303 303 308 309 311 312 313 315 311 307 304 300 289 272 270 269 271 277 280 286 291 286 287 283
254 255 256 261 266 267 267 266 267 269 272 276 279 284 286 288 290 291 295 298 304 308 308 308 309 315 317 315 311 309 309 308 311 301 286 280 277 277 279 282 289 290 286
255 263 271 270 270 265 263 263 267 270 271 272 275 279 283 286 289 293 294 295 298 301 303 306 311 315 317 318 317 316 315 322 319 306 299 293 290 284 277 277 274 277 279
259 266 270 273 285 275 271 271 271 278 277 278 277 279 282 287 290 291 292 296 299 301 301 302 305 307 310 313 314 312 314 321 323 321 314 306 304 298 288 285 283 270 271
280 280 281 283 287 289 283 287 282 286 285 286 285 283 287 289 291 290 290 293 296 295 294 297 300 304 306 307 309 310 312 314 318 321 320 315 313 307 296 294 287 282 274
310 306 300 299 303 301 292 294 292 298 299 297 292 292 292 292 293 293 293 297 299 298 298 298 298 301 303 305 308 310 310 308 309 315 317 320 318 316 310 301 301 291 282
313 309 310 315 314 311 308 302 302 300 306 305 303 302 299 299 297 298 298 299 296 295 296 298 298 301 303 302 305 308 311 311 305 308 312 315 317 316 316 315 311 299 282
320 319 316 312 308 308 311 312 310 310 310 310 310 309 307 306 304 304 302 301 297 297 297 295 296 300 303 304 305 305 307 309 306 304 306 310 313 315 313 313 309 301 281
317 315 314 310 310 311 311 310 309 308 309 307 308 308 309 306 307 305 303 299 300 300 300 297 299 301 303 304 304 304 304 304 305 304 304 305 310 313 313 310 302 294 278
322 322 320 318 315 313 311 307 303 305 307 305 304 304 303 301 303 303 299 297 295 297 295 295 297 300 300 301 302 301 301 301 301 302 298 301 303 306 308 307 302 291 277
325 324 323 321 320 320 316 313 311 308 309 306 305 305 304 302 304 303 300 298 295 294 291 293 293 294 294 295 294 295 295 296 297 297 295 292 294 299 302 301 299 292 281
326 326 326 324 322 319 316 315 314 315 314 313 311 310 309 308 307 304 301 298 295 294 290 288 288 289 290 291 292 292 292 292 292 290 288 285 286 286 292 293 293 290 284
327 327 325 322 320 320 320 320 319 317 315 314 315 314 316 313 308 305 302 297 297 295 292 289 288 287 288 288 289 289 289 288 286 282 283 284 281 278 278 287 288 287 282
330 328 325 322 322 323 324 321 320 318 316 316 317 319 320 319 316 311 307 303 298 295 292 290 289 289 287 286 286 286 286 285 284 283 277 278 280 277 275 277 283 281 275
327 327 327 326 325 323 322 320 318 317 316 316 316 319 313 306 301 303 304 302 301 298 296 293 290 287 285 285 284 283 283 282 280 277 266 270 274 271 271 273 277 277 272
329 329 327 324 324 323 322 320 320 319 317 313 315 317 313 309 311 309 306 302 298 296 296 294 290 287 285 282 281 280 280 279 280 279 276 263 262 269 267 269 271 269 266
328 326 326 325 323 323 323 323 322 321 319 318 318 318 318 315 311 305 300 298 296 291 288 287 289 287 284 281 279 277 275 276 277 275 272 268 251 263 261 253 262 264 258
324 322 321 321 322 323 323 323 321 320 320 319 319 318 316 313 308 304 300 297 295 290 286 284 284 284 284 282 280 278 276 275 275 275 273 264 266 250 270 254 258 260 258
321 321 320 321 321 322 322 322 322 322 321 320 320 319 318 312 307 303 300 297 293 291 292 290 288 287 285 282 279 276 275 273 271 266 263 260 260 252 249 264 250 254 253
321 321 321 321 320 320 321 322 322 323 321 322 322 321 317 310 308 305 302 300 297 297 297 296 294 292 289 286 282 279 276 273 268 264 262 264 267 263 254 262 245 249 248
Wind_Speed_850mb
28 27 25 22 20 18 19 21 24 27 30 32 34 36 39 42 44 48 51 52 55 58 60 63 66 65 70 76 75 78 83 89 95 108 97 95 95 89 91 93 88 90 86
26 23 21 18 18 20 22 24 27 29 32 34 35 36 36 37 40 43 46 50 52 53 51 55 64 66 73 75 78 80 81 83 86 100 102 102 99 96 91 88 88 89 89
28 27 26 26 26 28 28 28 28 28 30 33 34 35 36 39 41 42 47 49 51 54 57 60 62 58 64 71 72 78 84 86 83 87 102 92 98 97 101 97 94 91 92
31 30 29 29 29 29 29 31 32 33 36 34 36 38 38 38 40 45 45 47 49 51 52 55 57 58 69 73 65 61 72 79 85 89 98 102 93 90 91 93 94 93 101
32 32 34 34 33 34 34 35 36 37 38 40 40 38 38 37 40 40 42 43 43 43 44 47 51 54 54 55 73 87 82 76 70 82 88 92 93 92 97 93 94 100 97
32 34 37 37 35 33 32 34 35 35 34 32 28 26 23 23 26 31 36 38 39 42 45 45 46 49 49 52 50 52 70 93 101 96 90 83 89 92 105 101 99 87 99
33 34 35 36 38 36 32 30 32 31 30 29 28 26 25 24 27 32 37 42 44 43 45 48 47 46 48 52 56 60 58 54 69 93 105 107 98 86 80 77 74 77 88
34 35 35 32 34 35 35 32 32 33 33 32 32 31 31 28 31 34 37 41 45 47 49 51 50 48 45 50 57 61 65 67 60 56 65 86 100 112 95 89 92 91 91
38 35 39 38 36 40 38 36 35 35 34 36 35 34 35 32 34 38 42 47 51 53 55 57 58 58 55 54 60 67 68 63 58 59 61 66 70 76 77 83 97 91 94
36 36 35 42 42 39 42 41 39 39 39 41 40 38 37 39 37 42 47 53 57 58 62 62 62 63 61 63 64 67 75 71 71 69 65 61 62 65 60 67 74 79 81
32 33 35 35 37 39 42 44 46 44 45 45 47 41 42 43 42 45 49 53 59 62 65 65 65 67 68 70 67 69 69 71 73 73 74 70 68 64 62 61 57 58 72
29 31 33 37 42 39 41 44 48 51 49 48 50 46 45 47 47 47 50 52 56 63 69 70 69 64 68 75 75 72 68 67 68 68 70 70 65 61 56 54 54 49 55
32 36 36 39 47 48 48 47 52 48 52 54 53 54 54 51 51 49 58 61 60 63 68 76 80 74 69 71 72 76 76 70 64 67 70 68 61 56 56 55 51 47 53
35 37 37 42 47 51 56 53 56 53 55 61 64 64 68 64 63 59 63 66 70 72 76 81 82 79 75 75 73 72 73 72 65 66 68 66 62 57 55 52 50 47 51
40 42 45 49 54 59 61 60 61 56 55 64 67 69 75 77 68 67 67 70 74 77 84 91 93 87 84 79 76 74 72 71 71 68 67 67 65 60 54 51 52 48 51
53 55 59 62 65 66 70 77 71 70 70 70 75 71 73 72 69 71 71 77 77 76 83 91 96 92 88 81 79 78 77 76 74 73 67 71 70 62 57 55 53 51 53
58 60 63 63 63 67 72 79 90 88 83 81 81 81 79 80 82 80 76 78 79 80 85 92 93 91 91 89 85 82 82 78 77 76 68 64 65 62 61 61 57 56 57
62 64 65 65 67 69 71 76 81 89 98 100 92 88 85 84 85 80 76 82 94 86 85 89 93 94 96 96 92 90 89 82 75 72 70 59 59 63 62 64 64 62 60
59 59 59 61 63 64 68 72 76 82 88 96 98 92 93 90 89 87 78 80 89 87 86 93 97 99 100 100 98 95 92 88 80 75 73 70 68 63 68 67 66 65 64
57 57 57 58 60 62 67 71 76 80 86 91 94 95 93 88 85 84 86 86 87 92 91 92 96 101 103 101 100 98 98 93 86 74 70 72 71 70 75 68 70 69 68
59 58 57 59 60 63 67 70 73 77 81 84 88 87 74 76 88 93 93 93 94 97 99 98 99 97 95 97 100 99 98 97 84 75 75 62 67 72 73 75 72 74 70
55 55 55 57 61 66 70 73 75 78 81 84 90 90 78 84 96 98 96 94 92 93 95 98 102 100 96 93 90 91 95 97 91 85 82 78 65 74 77 78 75 80 75
57 58 61 64 66 70 74 76 78 81 84 85 85 92 98 100 99 100 100 97 94 92 91 92 98 101 98 95 91 87 89 91 84 76 77 77 77 52 75 79 76 81 81
60 62 65 67 70 73 77 81 83 85 87 88 92 100 107 107 105 104 102 101 97 95 91 92 94 96 95 91 90 89 88 86 81 81 71 69 68 87 57 80 78 85 84
59 62 65 67 70 73 77 80 83 86 87 89 97 106 113 111 108 106 104 100 98 97 97 95 95 93 89 86 83 81 82 81 77 74 71 70 78 87 81 66 85 86 88
62 63 67 69 72 74 77 81 86 88 89 94 102 112 113 110 109 107 106 104 102 101 97 95 92 87 83 81 78 74 73 72 67 64 62 67 71 75 89 71 90 89 88
Wind_Direction_850mb
223 225 230 234 237 246 259 267 272 275 278 277 277 278 279 280 279 279 282 285 282 279 275 276 277 279 277 276 279 281 280 273 267 283 282 286 286 280 281 285 289 287 290
212 209 215 226 240 252 258 262 267 271 275 279 282 282 283 283 284 284 283 280 278 279 283 284 283 284 283 282 279 274 270 274 276 278 285 285 285 287 289 290 292 289 289
216 223 231 243 252 259 262 263 267 272 277 281 283 284 285 286 286 285 283 286 286 286 286 281 276 276 282 285 286 283 284 283 275 270 278 285 286 285 284 285 290 289 291
228 234 242 250 257 262 267 269 271 274 274 276 279 282 282 283 284 285 288 290 292 295 296 296 294 287 272 268 275 281 285 282 284 282 278 283 281 284 274 280 287 287 293
241 247 251 253 256 260 263 266 269 271 272 273 274 274 274 277 281 287 290 293 296 297 300 301 303 303 300 290 273 269 270 276 285 281 277 280 281 281 276 283 290 294 292
248 252 254 254 256 258 261 263 266 267 268 268 269 271 275 282 288 292 297 303 306 307 307 307 310 312 311 308 302 286 273 268 269 273 277 284 279 278 284 282 287 292 282
250 251 256 260 261 259 263 269 269 270 271 271 275 279 286 291 296 298 298 303 303 308 309 311 312 313 315 311 307 304 300 289 272 270 269 271 277 280 286 291 286 287 283
254 255 256 261 266 267 267 266 267 269 272 276 279 284 286 288 290 291 295 298 304 308 308 308 309 315 317 315 311 309 309 308 311 301 286 280 277 277 279 282 289 290 286
255 263 271 270 270 265 263 263 267 270 271 272 275 279 283 286 289 293 294 295 298 301 303 306 311 315 317 318 317 316 315 322 319 306 299 293 290 284 277 277 274 277 279
259 266 270 273 285 275 271 271 271 278 277 278 277 279 282 287 290 291 292 296 299 301 301 302 305 307 310 313 314 312 314 321 323 321 314 306 304 298 288 285 283 270 271
280 280 281 283 287 289 283 287 282 286 285 286 285 283 287 289 291 290 290 293 296 295 294 297 300 304 306 307 309 310 312 314 318 321 320 315 313 307 296 294 287 282 274
310 306 300 299 303 301 292 294 292 298 299 297 292 292 292 292 293 293 293 297 299 298 298 298 298 301 303 305 308 310 310 308 309 315 317 320 318 316 310 301 301 291 282
313 309 310 315 314 311 308 302 302 300 306 305 303 302 299 299 297 298 298 299 296 295 296 298 298 301 303 302 305 308 311 311 305 308 312 315 317 316 316 315 311 299 282
320 319 316 312 308 308 311 312 310 310 310 310 310 309 307 306 304 304 302 301 297 297 297 295 296 300 303 304 305 305 307 309 306 304 306 310 313 315 313 313 309 301 281
317 315 314 310 310 311 311 310 309 308 309 307 308 308 309 306 307 305 303 299 300 300 300 297 299 301 303 304 304 304 304 304 305 304 304 305 310 313 313 310 302 294 278
322 322 320 318 315 313 311 307 303 305 307 305 304 304 303 301 303 303 299 297 295 297 295 295 297 300 300 301 302 301 301 301 301 302 298 301 303 306 308 307 302 291 277
325 324 323 321 320 320 316 313 311 308 309 306 305 305 304 302 304 303 300 298 295 294 291 293 293 294 294 295 294 295 295 296 297 297 295 292 294 299 302 301 299 292 281
326 326 326 324 322 319 316 315 314 315 314 313 311 310 309 308 307 304 301 298 295 294 290 288 288 289 290 291 292 292 292 292 292 290 288 285 286 286 292 293 293 290 284
327 327 325 322 320 320 320 320 319 317 315 314 315 314 316 313 308 305 302 297 297 295 292 289 288 287 288 288 289 289 289 288 286 282 283 284 281 278 278 287 288 287 282
330 328 325 322 322 323 324 321 320 318 316 316 317 319 320 319 316 311 307 303 298 295 292 290 289 289 287 286 286 286 286 285 284 283 277 278 280 277 275 277 283 281 275
327 327 327 326 325 323 322 320 318 317 316 316 316 319 313 306 301 303 304 302 301 298 296 293 290 287 285 285 284 283 283 282 280 277 266 270 274 271 271 273 277 277 272
329 329 327 324 324 323 322 320 320 319 317 313 315 317 313 309 311 309 306 302 298 296 296 294 290 287 285 282 281 280 280 279 280 279 276 263 262 269 267 269 271 269 266
328 326 326 325 323 323 323 323 322 321 319 318 318 318 318 315 311 305 300 298 296 291 288 287 289 287 284 281 279 277 275 276 277 275 272 268 251 263 261 253 262 264 258
324 322 321 321 322 323 323 323 321 320 320 319 319 318 316 313 308 304 300 297 295 290 286 284 284 284 284 282 280 278 276 275 275 275 273 264 266 250 270 254 258 260 258
321 321 320 321 321 322 322 322 322 322 321 320 320 319 318 312 307 303 300 297 293 291 292 290 288 287 285 282 279 276 275 273 271 266 263 260 260 252 249 264 250 254 253
321 321 321 321 320 320 321 322 322 323 321 322 322 321 317 310 308 305 302 300 297 297 297 296 294 292 289 286 282 279 276 273 268 264 262 264 267 263 254 262 245 249 248